Location: ????????
(37.6846°N, 24.0673°E)
Time: 11:47:41
(UTC+00:00)

Cosmos 2082 Rocket - Pass Details

Date: 14 July 2020
Orbit: 834 x 853 km, 71.0° (Epoch: 10 August)

Event Time Altitude Azimuth Distance (km) Brightness Sun altitude
Exits shadow 02:22:43 - 266° (W) 2,798 4.4 -9.3°
Reaches altitude 10° 02:24:12 10° 278° (W) 2,482 4.2 -9.1°
Maximum altitude 02:27:09 14° 309° (NW) 2,194 4.2 -8.6°
Drops below altitude 10° 02:30:08 10° 341° (NNW) 2,486 4.9 -8.1°
Sets 02:33:53 0° 6° (N) 3,423 6.0 -7.5°
